www.pogodaiklimat.ru

Погода и климат >> Архив погоды >> Россия >> Крым >> Алушта


АРХИВ ПОГОДЫ в Алуште

Время (UTC), дата Ветер
(напр.,м/с)
 
Видим.   Явления Облачность Т
(С)
Тd
(С)
f
(%)
Тe
(С)
Тes
(С)
Комфортность P
(гПа)
Po
(гПа)
Тmin
(С)
Tmax
(С)
R
(мм)
R24
(мм)
S
(см)
06 17.07 В 1 50 км 9/8 1500 м
[Sc diur, vesp Ci sp]
+23.8 +15.3 59 +27 +29 жарко 1008.3 999.8 +20.2
09 17.07 В 4 50 км 5/5 1500 м
[Cb cap]
+25.7 +19.5 69 +31 +37 очень
душно
1008.2 999.7
12 17.07 В 3 20 км в посл. час гроза 6/6 1500 м
[Cb cap]
+24.6 +19.5 73 +30 +34 очень
душно
1008.1 999.6
15 17.07 ЮВ 1 50 км 8/8 1500 м
[Cb calv]
+23.4 +19.1 77 +30 +31 очень
душно
1008.6 1000.0
18 17.07 С 1 20 км 1/1 1500 м
[Cb calv]
+22.0 +19.0 83 +27 +27 душно 1007.8 999.2 +26.2
21 17.07 СЗ 4 20 км ясно +22.7 +12.3 52 +25 +25 комфорт 1008.6 1000.0
00 18.07 СЗ 4 20 км ясно +20.4 +10.2 52 +22 +22 комфорт 1008.7 1000.0
03 18.07 СЗ 5 50 км ясно +21.8 +11.5 52 +24 +24 комфорт 1007.7 999.1 +19.4
06 18.07 ЮВ 2 50 км ясно +24.6 +16.3 60 +28 +37 душно 1009.9 1001.3 +19.4
09 18.07 Ю 2 50 км 6/6 1500 м
[Cb cap]
+28.3 +11.8 36 +29 +36 жарко 1009.8 1001.3
12 18.07 Ю 5 50 км 5/5 1500 м
[Cb calv]
+27.5 +13.1 41 +29 +33 жарко 1009.8 1001.3
15 18.07 В 1 50 км 8/8 1500 м
[Cb calv]
+26.9 +17.6 57 +31 +32 душно 1011.2 1002.7
18 18.07 СЗ 3 20 км 6/6 1500 м
[Sc]
+25.0 +12.4 45 +27 +27 жарко 1011.2 1002.7 +28.4
21 18.07 СЗ 4
{11}
20 км 1/1 1500 м
[Sc]
+24.8 +10.6 41 +26 +26 жарко 1013.9 1005.3
00 19.07 СЗ 5 20 км 1 балл +23.7 +9.3 40 +25 +25 комфорт 1014.0 1005.3
03 19.07 З 1 50 км ясно +22.0 +11.2 50 +24 +24 комфорт 1013.9 1005.2 +21.8
06 19.07 Ю 1 50 км 3/3 1500 м
[Cu med, cong]
+24.7 +15.8 58 +28 +35 душно 1014.9 1006.3 +21.8
09 19.07 Ю 2 50 км 5/5 1500 м
[Cb calv]
+25.7 +16.8 58 +29 +38 душно 1016.6 1008.0
12 19.07 ЮВ 1 50 км 8/8 1500 м
[Cb calv]
+25.3 +15.9 56 +29 +34 душно 1017.9 1009.3
15 19.07 Ю 1 50 км 6/6 1500 м
[Cb calv]
+24.9 +14.7 53 +28 +29 жарко 1018.0 1009.3
18 19.07 СЗ 1 20 км 4/4 1500 м
[Cu Sc]
+23.3 +12.7 51 +26 +26 жарко 1017.2 1008.6 +26.3
21 19.07 З 1 20 км 3/0
[Ci sp]
+23.0 +12.0 50 +26 +26 жарко 1019.4 1010.7
00 20.07 СЗ 1 20 км ясно +22.4 +10.8 48 +24 +24 комфорт 1019.4 1010.7
03 20.07 СЗ 1 50 км ясно +23.0 +10.8 46 +25 +25 комфорт 1018.2 1009.5 +22.0
06 20.07 В 2 50 км ясно +27.1 +9.0 32 +27 +36 жарко 1019.3 1010.7 +22.0
09 20.07 Ю 3 50 км 1/1 1500 м
[Sc]
+28.4 +9.6 31 +28 +42 жарко 1020.6 1012.0
12 20.07 ЮВ 3 50 км 3/3 1500 м
[Cu Sc]
+28.3 +14.5 43 +31 +40 душно 1019.3 1010.7
15 20.07 Ю 3 50 км 1/1 1500 м
[Sc]
+26.4 +12.8 43 +28 +30 жарко 1019.3 1010.7
18 20.07 СЗ 3 50 км ясно +24.4 +11.0 43 +26 +26 жарко 1019.4 1010.7 +29.0
21 20.07 СЗ 4 20 км ясно +25.0 +8.5 35 +25 +25 комфорт 1019.4 1010.7
00 21.07 СЗ 3 20 км ясно +23.0 +9.0 41 +24 +24 комфорт 1019.4 1010.7
03 21.07 З 4 50 км 1/1 1500 м
[Cu hum]
+25.2 +7.6 33 +25 +26 комфорт 1017.1 1008.5 +22.7
06 21.07 З 4 20 км 3/3 1500 м
[Cu Sc]
+28.9 +10.8 32 +29 +33 жарко 1016.8 1008.3 +22.7
09 21.07 В 2 20 км 8/3 1500 м
[Cu Sc Ac trans Ci sp]
+32.2 +12.4 30 +33 +38 жарко 1017.8 1009.3
12 21.07 ЮВ 1 20 км 8/8 1500 м
[Cb calv]
+29.7 +14.2 39 +32 +37 душно 1017.8 1009.3
15 21.07 Ю 2 50 км 4/4 1500 м
[Cu Sc]
+29.2 +15.3 43 +32 +34 душно 1016.5 1008.0
18 21.07 СЗ 3 20 км ясно +27.2 +8.1 30 +27 +27 жарко 1017.9 1009.3 +33.0
21 21.07 З 4 20 км ясно +27.0 +6.4 27 +26 +26 жарко 1017.9 1009.3
00 22.07 З 4
{10}
20 км ясно +27.2 +10.0 34 +28 +28 жарко 1017.9 1009.3
03 22.07 С 2 50 км ясно +24.9 +12.6 46 +27 +27 жарко 1017.2 1008.6 +24.5
06 22.07 ЮВ 1 50 км ясно +26.0 +17.9 61 +30 +40 душно 1017.9 1009.3 +24.5
09 22.07 Ю 1 20 км 3/3 1500 м
[Cu hum]
+29.2 +18.3 52 +34 +51 опасность
солнечного
удара
1017.8 1009.3
12 22.07 В 1 20 км 6/6 1500 м
[Cb calv]
+28.0 +20.8 65 +35 +41 очень
душно
1016.5 1008.0
15 22.07 В 1 20 км 8/8 1500 м
[Cb calv]
+26.1 +21.3 75 +33 +34 очень
душно
1016.6 1008.0
18 22.07 З 1 20 км 6/3 1500 м
[Cu Sc Ci sp]
+25.7 +19.2 67 +31 +31 очень
душно
1015.4 1006.9 +29.9
21 22.07 СЗ 2 20 км 8/3 1500 м
[Cu Sc Ci sp]
+25.0 +17.2 62 +29 +29 душно 1016.6 1008.0
00 23.07 С 2 20 км 3/3 1500 м
[Cu hum Ci sp]
+24.7 +16.7 61 +28 +28 душно 1015.3 1006.7
03 23.07 З 1 50 км 3/0
[Ci sp]
+23.2 +13.2 53 +26 +27 жарко 1013.4 1004.8 +23.0
06 23.07 ЮВ 1 50 км ясно +27.0 +15.4 49 +30 +40 душно 1013.9 1005.3 +23.0
09 23.07 Ю 2 50 км 8/8 1500 м
[Cb calv]
+29.9 +15.2 41 +32 +38 жарко 1012.5 1004.0
12 23.07 СЗ 2 50 км в посл. час гроза 8/8 1500 м
[Cb cap]
+26.6 +15.7 51 +30 +32 душно 1011.6 1003.1
15 23.07 С 3 20 км ливневой дождь 8/8 1500 м
[Cb calv]
+22.7 +20.1 85 +29 +30 очень
душно
1010.6 1002.0 2
18 23.07 СЗ 3 20 км {ливн. осадки} 8/6 1500 м
[Sc Ci sp]
+24.3 +16.8 63 +28 +28 душно 1010.5 1002.0 +30.0 3
21 23.07 СЗ 4 20 км 8/8 1500 м
[Sc]
+25.7 +15.4 53 +29 +29 душно 1011.3 1002.7
03 24.07 СЗ 3 50 км 3/3 1500 м
[Sc]
+23.0 +14.2 58 +27 +27 душно 1009.2 1000.6 +22.4 1

 

Местоположение метеостанции Алушта (Крым, Россия): широта 44.67 долгота 34.40 высота над уровнем моря 75 м.

В архиве по умолчанию представлена погода в Алуште за последнюю неделю. Архивные данные за месяц целиком и за предыдущие месяцы, начиная с января 2011 года, Вы можете получить, выбрав интересующий диапазон дат из раскрывающегося списка и нажав кнопку "Ввод!".


*Определитесь, кто Вы:
робот инопланетянин человек

Внимание! Время в таблицах - всемирное. Для получения местного времени необходимо прибавить поправку, которая равна 3 ч.

Смотрите также архив погоды в соседних городах и на ближайших метеорологических станциях:

Погода на Ангарском Перевале (Крым, Россия) (10 км)
Погода в Никитском саду (Крым, Россия) (20 км)
Погода в Ялте (Крым, Россия) (28 км)
Погода на Ай-Петри (Крым, Россия) (34 км)
Погода в Симферополе город (Крым, Россия) (38 км)
Погода в Почтовом (Крым, Россия) (40 км)
Погода в Белогорске (Крым, Россия) (45 км)
Погода в Симферополе (Крым, Россия) (52 км)
Погода в Карадаге (Крым, Россия) (68 км)
Погода в Севастополе (город Севастополь, Россия) (69 км)

Пояснения к столбцам:

Ветер - указаны скорость ветра в м/с - средняя за 10 мин, порывы в срок и между сроками (в фигурных скобках) и направление, откуда дует ветер: С - северный, СВ - северо-восточный, В - восточный, ЮВ - юго-восточный, Ю - южный, ЮЗ - юго-западный, З - западный, СЗ - северо-западный.
Видимость - горизонтальная дальность видимости в метрах или километрах. При видимости от 1 до 10 км при отсутствии осадков обычно наблюдается дымка, при ухудшении видимости до 1 км и менее - туман. В сухую погоду видимость может ухудшаться дымом, пылью или мглою.
Явления - указаны атмосферные явления, наблюдавшиеся в срок или в последний час перед сроком; фигурными скобками обозначены явления, наблюдавшиеся между сроками (за 1-3 часа до срока); квадратными скобками обозначены град или гололедные отложения с указанием их диаметра в мм.
Облачность - указаны через наклонную черту общая и нижняя облачность в баллах и высота нижней границы облаков в метрах; квадратными скобками обозначены формы облаков: Ci - перистые, Cs - перисто-слоистые, Cc - перисто-кучевые, Ac - высококучевые, As - высокослоистые, Sc - слоисто-кучевые, Ns - слоисто-дождевые, Cu - кучевые, Cb - кучево-дождевые. Подробнее классификацию облаков см. в Атласе облаков (PDF).
T - Температура воздуха - температура, измеренная на высоте 2 м над землей.
Td - Температура точки росы - температура, при понижении до которой содержащийся в воздухе водяной пар достигнет насыщения.
f - Относительная влажность воздуха - влажноcть воздуха, измеренная на высоте 2 м над землей.
Te - Эффективная температура - температура, которую ощущает одетый по сезону человек в тени. Характеристика душности погоды. При расчете учитывается влияние влажности воздуха и скорости ветра на теплоощущения человека.
Tes - Эффективная температура на солнце - температура, которую ощущает человек, с поправкой на солнечный нагрев. Характеристика знойности погоды. Зависит от высоты солнца над горизонтом, облачности и скорости ветра. Ночью, в пасмурную погоду, а также при ветре 12 м/с и более поправка равна нулю.
P - Атмосферное давление - приведенное к уровню моря атмосферное давление.
Po - Атмосферное давление - измеренное на уровне метеостанции атмосферное давление.
Tmin - Минимальная температура - минимум температуры воздуха на высоте 2 м над землей.
Tmax - Максимальная температура - максимум температуры воздуха на высоте 2 м над землей.
R - Количество осадков - Количество выпавших осадков за период времени, мм. При наведении курсора мыши на число - период времени, за который выпало указанное количество осадков.
R24 - Количество осадков - Количество выпавших осадков за 24 часа, мм.
S - Снежный покров - Высота снежного покрова, см. При наведении курсора мыши на число - состояние снежного покрова и степень покрытия местности в баллах.